Flag for Argentina

Past Weather in Paraná, Entre Rios, Argentina — Yesterday and Last 2 Weeks

Now
65 °F

Passing clouds.


Feels Like: 65 °F
Forecast: 74 / 60 °F
Wind: 16 mph from Southwest

Location: Sauce Viejo Aerodrome
Current Time: Oct 1, 2020 at 10:51:26 am
Latest Report: Oct 1, 2020 at 9:00 am
Visibility: 7 mi
Pressure29.78 "Hg
Humidity: 55%
Dew Point: 48 °F
Location of ParanáLocation

Past Weather in Paraná — Graph

°F

Paraná Temperature Yesterday

Maximum temperature yesterday: 94 °F (at 5:00 pm)
Minimum temperature yesterday: 61 °F (at 5:00 am)
Average temperature yesterday: 77 °F

High & Low Weather Summary for the Past Weeks

 TemperatureHumidityPressure
High94 °F (Sep 30, 5:00 pm)97% (Sep 20, 7:00 am)30.36 "Hg (Sep 20, 7:00 am)
Low31 °F (Sep 20, 6:00 am)18% (Sep 19, 12:00 pm)29.50 "Hg (Sep 30, 4:00 pm)
Average66 °F54%29.94 "Hg
* Reported Sep 16 9:00 am — Oct 1 9:00 am, Paraná. Weather by CustomWeather, © 2020

Note: Actual official high and low records may vary slightly from our data, if they occured in-between our weather recording intervals... More about our weather records

Paraná Weather History for the Previous 24 Hours

Scroll right to see more
 ConditionsComfort  
Time TempWeatherWind HumidityBarometerVisibility
9:00 am
Thu, Oct 1
65 °FPassing clouds.16 mph55%29.78 "Hg7 mi
8:00 am61 °FPassing clouds.12 mph67%29.74 "Hg7 mi
7:00 am60 °FPassing clouds.12 mph71%29.70 "Hg7 mi
6:00 am61 °FClear.10 mph71%29.66 "Hg7 mi
5:00 am62 °FClear.13 mph70%29.65 "Hg7 mi
4:00 am63 °FClear.16 mph72%29.64 "Hg7 mi
3:00 am66 °FClear.17 mph74%29.63 "Hg7 mi
2:00 am69 °FClear.13 mph74%29.64 "Hg7 mi
1:00 am73 °FClear.13 mph68%29.62 "Hg7 mi
12:00 am75 °FClear.6 mph65%29.59 "Hg7 mi
11:00 pm
Wed, Sep 30
78 °FClear.9 mph58%29.59 "Hg7 mi
10:00 pm79 °FPassing clouds.8 mph59%29.57 "Hg7 mi
9:00 pm81 °FPassing clouds.8 mph55%29.55 "Hg7 mi
8:00 pm83 °FPassing clouds.6 mph56%29.54 "Hg7 mi
7:00 pm88 °FPartly sunny.5 mph47%29.53 "Hg4 mi
6:00 pm92 °FSunny.8 mph41%29.50 "Hg4 mi
5:00 pm94 °FSunny.8 mph39%29.50 "Hg4 mi
4:00 pm94 °FSunny.10 mph36%29.50 "Hg4 mi
3:00 pm93 °FScattered clouds.10 mph37%29.54 "Hg4 mi
2:00 pm92 °FScattered clouds.10 mph39%29.55 "Hg7 mi
1:00 pm90 °FScattered clouds.13 mph36%29.61 "Hg7 mi
12:00 pm85 °FOvercast.16 mph40%29.64 "Hg7 mi
11:00 am80 °FOvercast.12 mph49%29.68 "Hg7 mi
10:00 am76 °FPartly sunny.9 mph61%29.70 "Hg7 mi
Weather by CustomWeather, © 2020

See weather overview